| time (UTC) | temp F | wind direction | speed MPH | gust MPH | rain 1hr in | rain 24hr in | rain mn in | humidity % | barometer mb |
| 20260901040804 | 60 | 180 | 1.0 | 9.0 | 0.00 | 0.00 | 0.00 | 76 | 1012.0 |
| 20260901035744 | 60 | 178 | 0.0 | 6.0 | 0.00 | 0.00 | 0.00 | 76 | 1012.0 |
| 20260901034710 | 60 | 32 | 1.0 | 5.0 | 0.00 | 0.00 | 0.00 | 76 | 1011.9 |
| 20260901032526 | 61 | 66 | 0.0 | 4.0 | 0.00 | 0.00 | 0.00 | 76 | 1011.6 |
| 20260901031541 | 60 | 82 | 1.0 | 7.0 | 0.00 | 0.00 | 0.00 | 76 | 1011.6 |
| 20260901030517 | 61 | 185 | 0.0 | 7.0 | 0.00 | 0.00 | 0.00 | 75 | 1011.5 |
| 20260901025533 | 61 | 184 | 0.0 | 5.0 | 0.00 | 0.00 | 0.00 | 75 | 1011.4 |
| 20260901024520 | 61 | 181 | 0.0 | 5.0 | 0.00 | 0.00 | 0.00 | 76 | 1011.5 |
| 20260901021253 | 61 | 173 | 1.0 | 6.0 | 0.00 | 0.00 | 0.00 | 75 | 1011.4 |
| 20260901020226 | 62 | 107 | 0.0 | 6.0 | 0.00 | 0.00 | 0.00 | 74 | 1011.5 |
| 20260901015203 | 62 | 13 | 0.0 | 5.0 | 0.00 | 0.00 | 0.00 | 74 | 1011.5 |
| 20260901014132 | 62 | 188 | 1.0 | 5.0 | 0.00 | 0.00 | 0.00 | 74 | 1011.4 |
| 20260901013143 | 62 | 235 | 1.0 | 7.0 | 0.00 | 0.00 | 0.00 | 74 | 1011.4 |
| 20260901012144 | 62 | 248 | 1.0 | 10.0 | 0.00 | 0.00 | 0.00 | 74 | 1011.5 |
| 20260901011205 | 62 | 63 | 1.0 | 10.0 | 0.00 | 0.00 | 0.00 | 74 | 1011.3 |
| 20260901010152 | 63 | 65 | 1.0 | 4.0 | 0.00 | 0.00 | 0.00 | 73 | 1011.4 |
| 20260901005136 | 63 | 157 | 1.0 | 6.0 | 0.00 | 0.00 | 0.00 | 73 | 1011.4 |
| 20260901004120 | 64 | 137 | 1.0 | 6.0 | 0.00 | 0.00 | 0.00 | 74 | 1011.4 |
| 20260901003119 | 64 | 146 | 1.0 | 8.0 | 0.00 | 0.00 | 0.00 | 73 | 1011.4 |
| 20260901001027 | 64 | 155 | 1.0 | 8.0 | 0.00 | 0.00 | 0.00 | 73 | 1011.5 |
| 20260901000045 | 64 | 165 | 1.0 | 9.0 | 0.00 | 0.00 | 0.00 | 74 | 1011.5 |
| 20260831235021 | 65 | 129 | 1.0 | 9.0 | 0.00 | 0.00 | 0.00 | 72 | 1011.6 |
| 20260831233957 | 65 | 198 | 0.0 | 8.0 | 0.00 | 0.00 | 0.00 | 74 | 1011.7 |
| 20260831232956 | 64 | 161 | 1.0 | 8.0 | 0.00 | 0.00 | 0.00 | 73 | 1011.7 |
| 20260831231929 | 64 | 188 | 1.0 | 6.0 | 0.00 | 0.00 | 0.00 | 74 | 1011.6 |
| 20260831230908 | 65 | 155 | 1.0 | 6.0 | 0.00 | 0.00 | 0.00 | 73 | 1011.7 |
| 20260831224737 | 65 | 147 | 1.0 | 4.0 | 0.00 | 0.00 | 0.00 | 75 | 1011.9 |
| 20260831223732 | 64 | 179 | 1.0 | 5.0 | 0.00 | 0.00 | 0.00 | 73 | 1012.0 |
| 20260831222708 | 65 | 168 | 1.0 | 6.0 | 0.00 | 0.00 | 0.00 | 74 | 1012.0 |
| 20260831221653 | 64 | 14 | 1.0 | 6.0 | 0.00 | 0.00 | 0.00 | 74 | 1012.2 |
| 20260831220621 | 64 | 336 | 1.0 | 4.0 | 0.00 | 0.00 | 0.00 | 75 | 1012.2 |
| 20260831215637 | 65 | 205 | 0.0 | 5.0 | 0.00 | 0.00 | 0.00 | 74 | 1012.2 |
| 20260831214624 | 65 | 136 | 1.0 | 5.0 | 0.00 | 0.00 | 0.00 | 74 | 1012.3 |
| 20260831213549 | 65 | 109 | 1.0 | 6.0 | 0.00 | 0.00 | 0.00 | 73 | 1012.4 |
| 20260831210407 | 64 | 180 | 1.0 | 8.0 | 0.00 | 0.00 | 0.00 | 76 | 1012.7 |
| 20260831205356 | 64 | 137 | 2.0 | 9.0 | 0.00 | 0.00 | 0.00 | 76 | 1012.7 |
| 20260831203147 | 63 | 160 | 1.0 | 6.0 | 0.00 | 0.00 | 0.00 | 77 | 1012.7 |
| 20260831202117 | 63 | 189 | 1.0 | 6.0 | 0.00 | 0.00 | 0.00 | 78 | 1012.7 |
| 20260831200010 | 63 | 188 | 2.0 | 4.0 | 0.00 | 0.00 | 0.00 | 78 | 1012.5 |
| 20260831193835 | 62 | 167 | 1.0 | 6.0 | 0.00 | 0.00 | 0.00 | 79 | 1012.8 |
| 20260831192804 | 61 | 91 | 2.0 | 6.0 | 0.00 | 0.00 | 0.00 | 80 | 1012.8 |
| 20260831190617 | 61 | 169 | 1.0 | 6.0 | 0.00 | 0.00 | 0.00 | 80 | 1012.8 |
| 20260831185617 | 61 | 171 | 2.0 | 6.0 | 0.00 | 0.00 | 0.00 | 81 | 1012.9 |
| 20260831184553 | 60 | 188 | 1.0 | 6.0 | 0.00 | 0.00 | 0.00 | 82 | 1012.9 |
| 20260831183615 | 61 | 142 | 1.0 | 6.0 | 0.00 | 0.00 | 0.00 | 82 | 1012.9 |
| 20260831182547 | 60 | 163 | 1.0 | 5.0 | 0.00 | 0.00 | 0.00 | 82 | 1013.0 |
| 20260831180359 | 60 | 136 | 2.0 | 8.0 | 0.00 | 0.00 | 0.00 | 83 | 1012.8 |
| 20260831175351 | 59 | 202 | 1.0 | 8.0 | 0.00 | 0.00 | 0.00 | 83 | 1012.9 |
| 20260831174414 | 59 | 174 | 2.0 | 6.0 | 0.00 | 0.00 | 0.00 | 84 | 1012.8 |
| 20260831172249 | 59 | 130 | 2.0 | 8.0 | 0.00 | 0.00 | 0.00 | 84 | 1012.7 |
| 20260831170124 | 59 | 82 | 2.0 | 5.0 | 0.00 | 0.00 | 0.00 | 83 | 1012.5 |
| 20260831165142 | 59 | 157 | 2.0 | 7.0 | 0.00 | 0.00 | 0.00 | 84 | 1012.4 |
| 20260831164117 | 59 | 126 | 2.0 | 7.0 | 0.00 | 0.00 | 0.00 | 84 | 1012.3 |
| 20260831163105 | 59 | 150 | 1.0 | 5.0 | 0.00 | 0.00 | 0.00 | 85 | 1012.2 |
| 20260831162046 | 58 | 147 | 2.0 | 8.0 | 0.00 | 0.00 | 0.00 | 85 | 1012.1 |
| 20260831161105 | 58 | 134 | 1.0 | 8.0 | 0.00 | 0.00 | 0.00 | 85 | 1012.1 |
| 20260831160052 | 58 | 107 | 1.0 | 6.0 | 0.00 | 0.00 | 0.00 | 85 | 1012.2 |
| 20260831153910 | 57 | 102 | 1.0 | 7.0 | 0.00 | 0.00 | 0.00 | 86 | 1012.1 |
| 20260831152851 | 57 | 223 | 2.0 | 7.0 | 0.00 | 0.00 | 0.00 | 86 | 1012.1 |
| 20260831151818 | 57 | 147 | 1.0 | 6.0 | 0.00 | 0.00 | 0.00 | 86 | 1011.9 |
| 20260831144445 | 57 | 175 | 1.0 | 7.0 | 0.00 | 0.00 | 0.00 | 85 | 1011.9 |
| 20260831142314 | 57 | 116 | 1.0 | 8.0 | 0.00 | 0.00 | 0.00 | 86 | 1011.6 |
| 20260831140210 | 57 | 140 | 1.0 | 7.0 | 0.00 | 0.00 | 0.00 | 86 | 1011.4 |
| 20260831135141 | 57 | 192 | 2.0 | 7.0 | 0.00 | 0.00 | 0.00 | 86 | 1011.2 |
| 20260831134136 | 57 | 266 | 1.0 | 5.0 | 0.00 | 0.00 | 0.00 | 86 | 1011.2 |
| 20260831133147 | 57 | 147 | 1.0 | 5.0 | 0.00 | 0.00 | 0.00 | 86 | 1011.0 |
| 20260831131111 | 57 | 209 | 2.0 | 6.0 | 0.00 | 0.00 | 0.00 | 86 | 1011.0 |
| 20260831130129 | 57 | 138 | 2.0 | 6.0 | 0.00 | 0.00 | 0.00 | 86 | 1010.9 |
| 20260831125127 | 57 | 184 | 2.0 | 7.0 | 0.00 | 0.00 | 0.00 | 86 | 1010.8 |
| 20260831124137 | 57 | 120 | 2.0 | 7.0 | 0.00 | 0.00 | 0.00 | 85 | 1010.7 |
| 20260831123157 | 57 | 186 | 1.0 | 7.0 | 0.00 | 0.00 | 0.00 | 85 | 1010.7 |
| 20260831122144 | 57 | 120 | 1.0 | 7.0 | 0.00 | 0.00 | 0.00 | 85 | 1010.7 |
| 20260831121129 | 57 | 279 | 1.0 | 10.0 | 0.00 | 0.00 | 0.00 | 85 | 1010.7 |
| 20260831120135 | 57 | 181 | 2.0 | 10.0 | 0.00 | 0.00 | 0.00 | 85 | 1010.6 |
| 20260831115133 | 57 | 138 | 1.0 | 7.0 | 0.00 | 0.00 | 0.00 | 85 | 1010.7 |
| 20260831114132 | 57 | 230 | 1.0 | 5.0 | 0.00 | 0.00 | 0.00 | 85 | 1010.6 |
| 20260831113137 | 57 | 166 | 2.0 | 7.0 | 0.00 | 0.00 | 0.00 | 86 | 1010.5 |
| 20260831112114 | 57 | 215 | 2.0 | 8.0 | 0.00 | 0.00 | 0.00 | 86 | 1010.6 |
| 20260831111125 | 58 | 167 | 1.0 | 8.0 | 0.00 | 0.00 | 0.00 | 85 | 1010.7 |
| 20260831105006 | 58 | 71 | 1.0 | 3.0 | 0.00 | 0.00 | 0.00 | 86 | 1010.5 |
| 20260831103938 | 58 | 165 | 0.0 | 3.0 | 0.00 | 0.00 | 0.00 | 86 | 1010.5 |
| 20260831102908 | 58 | 192 | 1.0 | 5.0 | 0.00 | 0.00 | 0.00 | 86 | 1010.4 |
| 20260831101851 | 58 | 162 | 1.0 | 5.0 | 0.00 | 0.00 | 0.00 | 86 | 1010.4 |
| 20260831100824 | 58 | 175 | 1.0 | 5.0 | 0.00 | 0.00 | 0.00 | 86 | 1010.3 |
| 20260831095800 | 58 | 203 | 1.0 | 5.0 | 0.00 | 0.00 | 0.00 | 86 | 1010.5 |
| 20260831094732 | 58 | 184 | 0.0 | 3.0 | 0.00 | 0.00 | 0.00 | 86 | 1010.4 |
| 20260831090434 | 57 | 150 | 0.0 | 3.0 | 0.00 | 0.00 | 0.00 | 86 | 1010.6 |
| 20260831084319 | 58 | 158 | 0.0 | 1.0 | 0.00 | 0.00 | 0.00 | 85 | 1010.5 |
| 20260831083243 | 58 | 190 | 0.0 | 4.0 | 0.00 | 0.00 | 0.00 | 86 | 1010.6 |
| 20260831082308 | 58 | 215 | 1.0 | 4.0 | 0.00 | 0.00 | 0.00 | 86 | 1010.7 |
| 20260831081300 | 58 | 144 | 0.0 | 3.0 | 0.00 | 0.00 | 0.00 | 86 | 1010.9 |
| 20260831080304 | 58 | 209 | 1.0 | 5.0 | 0.00 | 0.00 | 0.00 | 86 | 1010.9 |
| 20260831074226 | 58 | 142 | 0.0 | 3.0 | 0.00 | 0.00 | 0.00 | 86 | 1010.9 |
| 20260831073236 | 58 | 150 | 0.0 | 2.0 | 0.00 | 0.00 | 0.00 | 85 | 1010.8 |
| 20260831071155 | 58 | 171 | 0.0 | 2.0 | 0.00 | 0.00 | 0.00 | 85 | 1010.9 |
| 20260831070125 | 58 | 178 | 0.0 | 4.0 | 0.00 | 0.00 | 0.00 | 85 | 1010.9 |
| 20260831065126 | 57 | 165 | 0.0 | 5.0 | 0.00 | 0.00 | 0.00 | 85 | 1010.9 |
| 20260831064149 | 58 | 117 | 0.0 | 5.0 | 0.00 | 0.00 | 0.00 | 84 | 1010.9 |
| 20260831063142 | 58 | 149 | 1.0 | 4.0 | 0.00 | 0.00 | 0.00 | 85 | 1011.0 |
| 20260831061039 | 58 | 198 | 0.0 | 2.0 | 0.00 | 0.00 | 0.00 | 84 | 1011.0 |
| 20260831060015 | 58 | 159 | 0.0 | 0.0 | 0.00 | 0.00 | 0.00 | 83 | 1011.0 |
| 20260831054959 | 58 | 166 | 0.0 | 0.0 | 0.00 | 0.00 | 0.00 | 82 | 1010.9 |
| 20260831053935 | 58 | 166 | 0.0 | 0.0 | 0.00 | 0.00 | 0.00 | 81 | 1010.9 |
| 20260831052953 | 59 | 151 | 0.0 | 0.0 | 0.00 | 0.00 | 0.00 | 81 | 1010.9 |
| 20260831051927 | 58 | 153 | 0.0 | 2.0 | 0.00 | 0.00 | 0.00 | 81 | 1010.9 |
| 20260831050938 | 59 | 128 | 0.0 | 0.0 | 0.00 | 0.00 | 0.00 | 80 | 1011.0 |
| 20260831045954 | 59 | 161 | 0.0 | 2.0 | 0.00 | 0.00 | 0.00 | 81 | 1011.1 |
| 20260831043821 | 59 | 144 | 0.0 | 3.0 | 0.00 | 0.00 | 0.00 | 80 | 1011.0 |
| 20260831042805 | 60 | 165 | 0.0 | 3.0 | 0.00 | 0.00 | 0.00 | 78 | 1010.8 |
| 20260831041746 | 61 | 145 | 0.0 | 0.0 | 0.00 | 0.00 | 0.00 | 77 | 1010.7 |